Location: Miami, Florida
(25.6830°N, 80.1700°W)
Time: 16:59:11
(UTC-04:00)

Tiangong 1 - Pass Details

Date: 16 November 2017
Orbit: 284 x 308 km, 42.8° (Epoch: 21 November)

Event Time Altitude Azimuth Distance (km) Brightness Sun altitude
Exits shadow 06:20:30 60° 151° (SSE) 332 0.8 -17.8°
Drops below altitude 10° 06:22:40 10° 132° (SE) 1,129 4.4 -17.4°
Sets 06:24:36 0° 130° (SE) 1,950 5.8 -16.9°
